Location: Unspecified
(29.9680°N, 0.0000°E)
Time: 18:07:59
(UTC+00:00)

Explorer 7 - Pass Details

Date: 26 June 2019
Orbit: 485 x 680 km, 50.3° (Epoch: 20 August)

Event Time Altitude Azimuth Distance (km) Brightness Sun altitude
Rises 07:16:52 0° 260° (W) 2,652 9.7 26.8°
Reaches altitude 10° 07:19:26 10° 277° (W) 1,800 9.0 27.3°
Maximum altitude 07:22:36 21° 328° (NNW) 1,280 8.7 28.0°
Drops below altitude 10° 07:25:56 10° 18° (NNE) 1,898 10.0 28.7°
Sets 07:28:44 0° 34° (NE) 2,844 11.1 29.3°
